Location: Newark
(54.8972°N, 99.8189°W)
Time: 16:53:40
(UTC+00:00)

Transit 2A - Pass Details

Date: 17 November 2019
Orbit: 602 x 957 km, 66.7° (Epoch: 11 December)

Event Time Altitude Azimuth Distance (km) Brightness Sun altitude
Rises 23:12:21 0° 291° (WNW) 2,985 9.8 -5.7°
Reaches altitude 10° 23:15:20 10° 310° (NW) 2,026 8.6 -6.1°
Maximum altitude 23:18:30 18° 355° (N) 1,514 7.4 -6.5°
Drops below altitude 10° 23:21:36 10° 40° (NE) 1,966 7.6 -6.9°
Enters shadow 23:22:21 - 47° (NE) 2,180 7.8 -7.0°
